COSMOS 2251 DEB

Satellite information

Favourite Embed

Satellite Type and Status

DEBRISIN ORBIT

Key statistics

Satellite COSMOS 2251 DEB at a glance.

Uptime

11869

Days in orbit

Revolutions

≈ 14.7

Per day

Orbit

LEO

Low Earth Orbit

Inclination

74.0

Latest

Satellite identification and parameters

Extended collection of information and parameters for COSMOS 2251 DEB.

Object identification

Identified? True

Debris? True

Object name: COSMOS 2251 DEB

International designator: 1993-036ATJ

Object number (NORAD): 35836

Object ID (CCSDS): 35836

Country: COMMONWEALTH OF INDEPENDENT STATES (CIS)

Current information (Y/N): Y

RCS size: SMALL

Orbital parameters

Period: 97.893 minutes

Inclination: 74.0316 deg

SMA: 7036.015 km

Apoapsis: 674.872 km

Periapsis: 640.889 km

RAAN: 171.4459 deg

Eccentricy: 0.00241495

Argument of periapsis: 229.8906 deg

Mean anomaly: 130.015 deg

Mean motion: 14.70999722 rev/day

Mean motion (dot): 0.00019156 rev/day2

B* drag term: 0.003104343 1/REarth

Two-line elements (TLE)

Creation date: Dec. 14, 2025, 3:07 a.m.

Reference frame: TEME

Reference center: EARTH

Epoch: Dec. 13, 2025, 12:09 p.m. UTC

TLE line 0: 0 COSMOS 2251 DEB

TLE line 1: 1 35836U 93036ATJ 25347.50646565 .00019156 00000-0 31043-2 0 9999

TLE line 2: 2 35836 74.0316 171.4459 0024149 229.8906 130.0150 14.70999722635313

Live tracking on map

Real-time ground track for satellite COSMOS 2251 DEB.

In-orbit conjunctions

A list of the most updated potential collisions computed for object COSMOS 2251 DEB.

Target Orbit TCA Probability of collision Miss distance Type
KSLV-II R/B SSO 2025-06-18 17:04:32 0.0001666575 275.0 (m) ROCKET BODY
MUBLCOM SSO 2025-01-10 04:55:33 0.0001787083 198.0 (m) PAYLOAD
CZ-4 DEB SSO 2024-11-11 11:24:35 0.0001038677 292.0 (m) DEBRIS

Associated space launch

Military communications satellite. Destroyed in a collision with Iridium 33.

COSMOS 2251 DEB was lifted into orbit during the mission ‘Kosmos-3M | Strela-2M 51’, on board a Kosmos-3M space rocket.

The launch took place on June 16, 1993, 4:17 a.m. from 132/1 (132L).

For more information about the launch, click the button.

Launch to space Kosmos-3M | Strela-2M 51
Kosmos-3M | Strela-2M 51

Agency: N/A

Status: Launch Successful

Launch date: June 16, 1993, 4:17 a.m. UTC

Rocket: Kosmos-3M

Launch pad: 132/1 (132L)

Location: Plesetsk Cosmodrome, Russian Federation

...

Latest news about this satellite

There are no fresh news available about this satellite. Check back as we update our databases every day.


Newsletter sign-up

Weekly statistics, charts and insights to help you stay on top of the space industry.